EN

Hourly Weather Laczki

Today, 25 July, Sunday

Time Temperature Precipitation Wind Pressure Humidity
00:00 +18°C° 0 mm 2 mps 751 mmHg 76%
01:00 +17°C° 0 mm 2 mps 751 mmHg 80%
02:00 +17°C° 0 mm 2 mps 751 mmHg 80%
03:00 +17°C° 0 mm 2 mps 751 mmHg 81%
04:00 +16°C° 0 mm 2 mps 751 mmHg 82%
05:00 +18°C° 0 mm 2 mps 751 mmHg 76%
06:00 +20°C° 0 mm 3 mps 751 mmHg 70%
07:00 +22°C° 0 mm 3 mps 751 mmHg 64%
08:00 +25°C° 0 mm 3 mps 751 mmHg 60%
09:00 +26°C° 0 mm 3 mps 751 mmHg 56%
10:00 +27°C° 0 mm 4 mps 751 mmHg 51%
11:00 +28°C° 0 mm 4 mps 751 mmHg 50%
12:00 +28°C° 0 mm 4 mps 751 mmHg 48%
13:00 +29°C° 0 mm 4 mps 751 mmHg 47%
14:00 +29°C° 0 mm 4 mps 751 mmHg 46%
15:00 +29°C° 0 mm 4 mps 751 mmHg 44%
16:00 +30°C° 0 mm 4 mps 750 mmHg 43%
17:00 +28°C° 0 mm 3 mps 750 mmHg 48%
18:00 +26°C° 0 mm 3 mps 750 mmHg 54%
19:00 +24°C° 0 mm 2 mps 751 mmHg 60%
20:00 +24°C° 0 mm 3 mps 751 mmHg 60%
21:00 +24°C° 0 mm 3 mps 751 mmHg 60%
22:00 +22°C° 0 mm 3 mps 751 mmHg 60%
23:00 +21°C° 0 mm 3 mps 751 mmHg 61%

Tomorrow, 26 July, Monday

Time Temperature Precipitation Wind Pressure Humidity
00:00 +21°C° 0 mm 3 mps 751 mmHg 62%
01:00 +20°C° 0 mm 3 mps 751 mmHg 63%
02:00 +19°C° 0 mm 3 mps 751 mmHg 65%
03:00 +19°C° 0 mm 3 mps 751 mmHg 68%
04:00 +18°C° 0 mm 3 mps 751 mmHg 70%
05:00 +20°C° 0 mm 4 mps 751 mmHg 67%
06:00 +21°C° 0 mm 4 mps 751 mmHg 64%
07:00 +23°C° 0 mm 5 mps 751 mmHg 61%
08:00 +26°C° 0 mm 5 mps 751 mmHg 56%
09:00 +27°C° 0 mm 6 mps 751 mmHg 51%
10:00 +29°C° 0 mm 7 mps 751 mmHg 46%
11:00 +29°C° 0 mm 6 mps 750 mmHg 46%
12:00 +30°C° 0 mm 6 mps 750 mmHg 45%
13:00 +30°C° 0 mm 6 mps 750 mmHg 45%
14:00 +27°C° 0.6 mm 5 mps 750 mmHg 58%
15:00 +25°C° 0.6 mm 5 mps 750 mmHg 71%
16:00 +22°C° 0.6 mm 4 mps 749 mmHg 84%
17:00 +22°C° 0 mm 4 mps 749 mmHg 82%
18:00 +22°C° 0 mm 4 mps 749 mmHg 80%
19:00 +22°C° 0 mm 3 mps 749 mmHg 78%
20:00 +21°C° 0.2 mm 3 mps 749 mmHg 81%
21:00 +21°C° 0.2 mm 3 mps 749 mmHg 85%
22:00 +20°C° 0.2 mm 3 mps 749 mmHg 88%
23:00 +20°C° 0.4 mm 3 mps 748 mmHg 90%

Day after tomorrow, 27 July, Tuesday

Time Temperature Precipitation Wind Pressure Humidity
00:00 +19°C° 0.4 mm 3 mps 748 mmHg 93%
01:00 +19°C° 0.4 mm 3 mps 748 mmHg 95%
02:00 +19°C° 0.2 mm 3 mps 748 mmHg 96%
03:00 +19°C° 0.2 mm 3 mps 748 mmHg 97%
04:00 +19°C° 0.2 mm 3 mps 748 mmHg 98%
05:00 +20°C° 0.1 mm 3 mps 748 mmHg 95%
06:00 +20°C° 0.1 mm 3 mps 748 mmHg 93%
07:00 +21°C° 0.1 mm 3 mps 748 mmHg 90%
08:00 +24°C° 0 mm 3 mps 748 mmHg 83%
09:00 +25°C° 0 mm 3 mps 748 mmHg 75%
10:00 +27°C° 0 mm 4 mps 748 mmHg 67%
11:00 +27°C° 0.7 mm 4 mps 748 mmHg 67%
12:00 +27°C° 0.7 mm 4 mps 748 mmHg 68%
13:00 +27°C° 0.7 mm 5 mps 748 mmHg 68%
14:00 +27°C° 0.9 mm 4 mps 748 mmHg 69%
15:00 +27°C° 0.9 mm 4 mps 748 mmHg 70%
16:00 +27°C° 0.9 mm 4 mps 748 mmHg 71%
17:00 +26°C° 0.4 mm 3 mps 748 mmHg 75%
18:00 +25°C° 0.4 mm 3 mps 748 mmHg 79%
19:00 +22°C° 0.4 mm 3 mps 748 mmHg 83%
20:00 +23°C° 0.1 mm 2 mps 748 mmHg 85%
21:00 +21°C° 0.1 mm 2 mps 748 mmHg 88%
22:00 +20°C° 0.1 mm 2 mps 749 mmHg 91%
23:00 +20°C° 0 mm 1 mps 749 mmHg 91%

28 July, Wednesday

Time Temperature Precipitation Wind Pressure Humidity
00:00 +20°C° 0 mm 1 mps 749 mmHg 91%
01:00 +20°C° 0 mm 1 mps 749 mmHg 92%
02:00 +20°C° 0 mm 1 mps 749 mmHg 92%
03:00 +19°C° 0 mm 1 mps 749 mmHg 92%
04:00 +19°C° 0 mm 1 mps 749 mmHg 92%
05:00 +21°C° 0 mm 1 mps 749 mmHg 87%
06:00 +21°C° 0 mm 2 mps 749 mmHg 82%
07:00 +24°C° 0 mm 2 mps 749 mmHg 77%
08:00 +25°C° 0.1 mm 2 mps 749 mmHg 69%
09:00 +27°C° 0.1 mm 3 mps 749 mmHg 60%
10:00 +28°C° 0.1 mm 3 mps 749 mmHg 52%
11:00 +29°C° 0 mm 3 mps 748 mmHg 49%
12:00 +30°C° 0 mm 3 mps 748 mmHg 46%
13:00 +30°C° 0 mm 3 mps 748 mmHg 43%
14:00 +30°C° 0 mm 3 mps 748 mmHg 47%
15:00 +29°C° 0 mm 3 mps 747 mmHg 50%
16:00 +29°C° 0 mm 3 mps 747 mmHg 54%
17:00 +26°C° 0.3 mm 3 mps 748 mmHg 64%
18:00 +23°C° 0.3 mm 4 mps 748 mmHg 75%
19:00 +20°C° 0.3 mm 4 mps 748 mmHg 85%
20:00 +20°C° 0.4 mm 3 mps 748 mmHg 89%
21:00 +19°C° 0.4 mm 3 mps 748 mmHg 92%
22:00 +19°C° 0.4 mm 2 mps 748 mmHg 96%
23:00 +18°C° 0.1 mm 2 mps 748 mmHg 96%

29 July, Thursday

Time Temperature Precipitation Wind Pressure Humidity
00:00 +18°C° 0.1 mm 2 mps 748 mmHg 96%
01:00 +18°C° 0.1 mm 2 mps 748 mmHg 96%
02:00 +18°C° 0.1 mm 2 mps 748 mmHg 97%
03:00 +17°C° 0.1 mm 2 mps 748 mmHg 97%
04:00 +17°C° 0.1 mm 2 mps 748 mmHg 97%
05:00 +18°C° 0 mm 2 mps 748 mmHg 94%
06:00 +18°C° 0 mm 2 mps 748 mmHg 91%
07:00 +19°C° 0 mm 3 mps 748 mmHg 88%
08:00 +20°C° 0 mm 3 mps 749 mmHg 79%
09:00 +22°C° 0 mm 3 mps 749 mmHg 70%
10:00 +25°C° 0 mm 3 mps 749 mmHg 61%
11:00 +26°C° 0 mm 4 mps 748 mmHg 56%
12:00 +27°C° 0 mm 4 mps 748 mmHg 50%
13:00 +27°C° 0 mm 5 mps 748 mmHg 45%
14:00 +27°C° 0 mm 4 mps 748 mmHg 49%
15:00 +26°C° 0 mm 4 mps 748 mmHg 53%
16:00 +25°C° 0 mm 3 mps 748 mmHg 57%
17:00 +24°C° 0 mm 3 mps 748 mmHg 61%
18:00 +23°C° 0 mm 2 mps 748 mmHg 65%
19:00 +22°C° 0 mm 1 mps 748 mmHg 69%
20:00 +20°C° 0 mm 2 mps 748 mmHg 71%
21:00 +19°C° 0 mm 2 mps 748 mmHg 73%
22:00 +19°C° 0 mm 2 mps 747 mmHg 75%
23:00 +19°C° 0 mm 2 mps 747 mmHg 74%

30 July, Friday

Time Temperature Precipitation Wind Pressure Humidity
00:00 +19°C° 0 mm 2 mps 747 mmHg 73%
01:00 +19°C° 0 mm 2 mps 747 mmHg 73%
02:00 +18°C° 0 mm 2 mps 747 mmHg 75%
03:00 +18°C° 0 mm 2 mps 747 mmHg 77%
04:00 +17°C° 0 mm 3 mps 747 mmHg 79%
05:00 +19°C° 0 mm 3 mps 747 mmHg 73%
06:00 +20°C° 0 mm 3 mps 747 mmHg 67%
07:00 +22°C° 0 mm 4 mps 747 mmHg 62%
08:00 +25°C° 0 mm 4 mps 747 mmHg 55%
09:00 +26°C° 0 mm 4 mps 746 mmHg 49%
10:00 +28°C° 0 mm 4 mps 746 mmHg 43%
11:00 +28°C° 0 mm 5 mps 746 mmHg 45%
12:00 +28°C° 0 mm 5 mps 746 mmHg 46%
13:00 +28°C° 0 mm 5 mps 746 mmHg 48%
14:00 +28°C° 0 mm 5 mps 746 mmHg 49%
15:00 +28°C° 0 mm 5 mps 746 mmHg 50%
16:00 +28°C° 0 mm 5 mps 746 mmHg 50%
17:00 +26°C° 0 mm 4 mps 746 mmHg 55%
18:00 +24°C° 0 mm 3 mps 746 mmHg 60%
19:00 +23°C° 0 mm 2 mps 746 mmHg 65%
20:00 +21°C° 0 mm 2 mps 746 mmHg 66%
21:00 +20°C° 0 mm 2 mps 746 mmHg 68%
22:00 +20°C° 0 mm 1 mps 746 mmHg 69%
23:00 +19°C° 0 mm 2 mps 746 mmHg 68%
Show more